Total_Precipitation_Accumulation
2.64 2.91 2.78 2.63 2.65 2.65 2.93 3.22 3.24 2.89 2.59 2.40 2.23 2.12 2.09 2.05 2.13 1.96 1.91 1.89 1.66 1.52 1.41 1.32 1.27 1.26 1.35 1.51 1.72 1.93 2.10 2.25 2.39 2.51 2.69 2.92 3.16 3.38
2.59 2.75 2.73 2.64 2.84 2.83 2.93 3.16 3.34 3.28 2.77 2.58 2.46 2.13 2.15 1.82 1.95 1.84 1.78 1.75 1.53 1.42 1.35 1.31 1.29 1.28 1.28 1.31 1.40 1.54 1.71 1.84 1.96 2.05 2.09 2.15 2.22 2.37
2.18 2.28 2.30 2.54 2.74 2.69 2.82 2.93 3.13 3.33 3.00 2.82 2.86 2.59 2.53 2.27 2.03 1.81 1.58 1.55 1.44 1.42 1.31 1.23 1.21 1.20 1.22 1.20 1.19 1.26 1.38 1.50 1.59 1.71 1.86 1.97 2.01 2.06
2.12 2.20 2.10 2.27 2.39 2.44 2.62 2.75 2.98 3.33 3.19 2.98 2.94 2.83 2.71 2.47 2.25 2.00 1.57 1.36 1.39 1.50 1.34 1.20 1.14 1.12 1.14 1.13 1.08 1.05 1.08 1.13 1.19 1.28 1.46 1.62 1.75 1.89
1.97 1.91 1.85 2.02 2.08 2.23 2.39 2.41 2.57 2.94 3.00 2.75 2.67 2.88 2.74 2.48 2.47 2.14 1.88 1.81 1.39 1.39 1.33 1.16 1.10 1.04 1.04 1.09 1.09 1.03 1.00 1.01 1.04 1.13 1.27 1.42 1.53 1.62
1.70 1.59 1.60 1.75 1.79 1.92 1.99 2.15 2.31 2.43 2.63 2.61 2.53 2.66 2.69 2.58 2.73 2.48 2.27 2.11 1.77 1.47 1.48 1.25 1.14 1.08 1.05 1.04 1.04 1.06 1.09 1.08 1.08 1.14 1.17 1.21 1.33 1.42
1.48 1.34 1.27 1.29 1.34 1.47 1.47 1.74 2.02 2.16 2.24 2.36 2.39 2.49 2.70 2.80 2.67 2.64 2.47 2.27 2.11 1.94 1.91 1.52 1.23 1.07 1.05 1.06 1.07 1.11 1.14 1.15 1.17 1.24 1.33 1.38 1.41 1.45
1.48 1.45 1.27 1.15 1.13 1.17 1.21 1.31 1.51 1.65 1.85 2.11 2.19 2.29 2.51 2.77 2.81 2.82 2.72 2.49 2.28 2.12 2.26 2.21 1.84 1.56 1.35 1.11 1.10 1.12 1.19 1.27 1.30 1.36 1.45 1.58 1.69 1.69
1.42 1.41 1.18 1.06 1.11 1.08 1.15 1.16 1.22 1.27 1.37 1.64 1.78 1.82 2.07 2.37 2.70 2.75 2.84 2.69 2.46 2.41 2.51 2.55 2.60 2.35 1.77 1.43 1.35 1.18 1.20 1.30 1.36 1.42 1.49 1.52 1.67 1.82
1.33 1.38 1.37 1.31 1.21 1.24 1.27 1.20 1.10 1.11 1.13 1.09 1.18 1.39 1.58 1.81 2.18 2.37 2.69 2.89 2.74 2.64 2.67 2.75 2.76 2.97 2.47 1.92 1.74 1.49 1.41 1.44 1.50 1.51 1.53 1.60 1.66 1.75
1.38 1.41 1.39 1.31 1.30 1.26 1.26 1.26 1.14 1.06 1.04 1.02 1.00 1.11 1.32 1.46 1.74 2.08 2.38 2.61 2.72 2.79 2.83 2.90 2.81 2.96 3.24 2.77 2.07 1.72 1.48 1.43 1.47 1.52 1.57 1.67 1.74 1.74
1.47 1.46 1.35 1.24 1.30 1.23 1.12 1.18 1.16 1.16 1.18 1.12 1.10 1.14 1.20 1.36 1.60 1.87 2.15 2.43 2.48 2.57 2.42 2.40 2.43 2.58 3.02 3.22 2.83 2.20 1.73 1.56 1.47 1.44 1.47 1.58 1.71 1.58
1.49 1.50 1.43 1.33 1.12 1.06 1.03 1.05 1.13 1.20 1.27 1.29 1.29 1.31 1.38 1.42 1.46 1.64 1.93 2.19 2.28 2.10 1.87 1.99 2.18 2.32 2.40 2.58 2.73 2.66 2.27 1.93 1.72 1.59 1.54 1.50 1.53 1.49
1.76 1.73 1.65 1.48 1.24 1.11 1.01 1.06 1.13 1.10 1.14 1.25 1.22 1.21 1.28 1.33 1.37 1.53 1.73 1.87 1.97 1.97 1.92 2.04 2.20 2.24 2.33 2.37 2.41 2.44 2.45 2.28 2.09 1.97 1.91 1.88 1.68 1.60
2.03 2.04 1.90 1.64 1.38 1.17 1.07 1.06 1.06 1.02 1.06 1.13 1.09 1.05 1.09 1.17 1.24 1.40 1.56 1.73 1.79 1.74 1.76 1.89 2.02 2.06 2.17 2.24 2.17 2.08 2.14 2.20 2.19 2.17 2.20 2.20 2.06 1.89
2.10 2.02 1.90 1.70 1.44 1.29 1.22 1.12 1.02 1.08 1.11 1.09 1.09 1.09 1.15 1.25 1.35 1.40 1.52 1.65 1.81 1.77 1.73 1.77 1.84 1.96 1.93 1.81 1.74 1.62 1.62 1.73 1.89 2.04 2.24 2.44 2.49 2.40
2.19 2.02 1.90 1.70 1.53 1.45 1.37 1.27 1.19 1.17 1.14 1.11 1.14 1.14 1.14 1.20 1.28 1.31 1.40 1.45 1.52 1.54 1.58 1.64 1.76 1.90 1.91 1.84 1.73 1.55 1.50 1.43 1.47 1.77 2.11 2.35 2.36 2.23
1.71 1.68 1.70 1.63 1.53 1.45 1.38 1.29 1.23 1.18 1.16 1.15 1.15 1.13 1.09 1.10 1.17 1.29 1.39 1.39 1.35 1.35 1.42 1.48 1.70 1.92 1.97 1.81 1.50 1.39 1.37 1.34 1.34 1.55 1.75 1.84 1.83 1.72
1.41 1.46 1.42 1.39 1.36 1.33 1.30 1.22 1.17 1.15 1.19 1.20 1.16 1.15 1.14 1.15 1.18 1.27 1.37 1.41 1.35 1.32 1.42 1.56 1.70 1.84 1.84 1.64 1.41 1.16 1.17 1.20 1.33 1.52 1.61 1.60 1.49 1.35
1.28 1.32 1.32 1.32 1.32 1.33 1.33 1.28 1.26 1.27 1.29 1.29 1.27 1.26 1.27 1.28 1.29 1.30 1.37 1.43 1.39 1.36 1.44 1.55 1.58 1.62 1.63 1.54 1.45 1.30 1.08 1.13 1.21 1.33 1.43 1.46 1.36 1.21
1.36 1.38 1.38 1.36 1.37 1.41 1.42 1.38 1.37 1.33 1.30 1.33 1.32 1.30 1.28 1.29 1.33 1.34 1.40 1.47 1.44 1.40 1.36 1.35 1.43 1.53 1.66 1.86 1.76 1.52 1.32 1.18 1.20 1.23 1.33 1.45 1.45 1.40
1.30 1.35 1.36 1.35 1.38 1.42 1.40 1.35 1.36 1.33 1.30 1.29 1.28 1.28 1.29 1.28 1.30 1.37 1.39 1.40 1.37 1.32 1.29 1.31 1.46 1.65 1.74 1.81 1.73 1.59 1.52 1.43 1.37 1.31 1.25 1.20 1.22 1.25
1.30 1.32 1.28 1.26 1.29 1.30 1.24 1.22 1.26 1.31 1.33 1.34 1.31 1.28 1.27 1.25 1.23 1.29 1.34 1.37 1.38 1.40 1.43 1.49 1.54 1.63 1.67 1.69 1.74 1.69 1.57 1.51 1.51 1.50 1.41 1.21 0.94 0.83